Location: Doverdale
(52.2833°N, 2.2000°W)
Time: 14:02:07
(UTC+00:00)

Cosmos 1726 Rocket - Pass Details

Date: 29 October 2020
Orbit: 603 x 629 km, 82.5° (Epoch: 28 November)

Event Time Altitude Azimuth Distance (km) Brightness Sun altitude
Rises 17:24:25 0° 174° (S) 2,863 7.1 -6.6°
Reaches altitude 10° 17:26:40 10° 169° (S) 1,967 6.2 -7.0°
Maximum altitude 17:30:52 50° 94° (E) 793 3.8 -7.6°
Drops below altitude 10° 17:35:08 10° 20° (NNE) 1,999 5.9 -8.2°
Sets 17:37:26 0° 15° (NNE) 2,914 6.7 -8.6°
